Time,TemperatureF,DewpointF,PressureIn,WindDirection,WindDirectionDegrees,WindSpeedMPH,WindSpeedGustMPH,Humidity,HourlyPrecipIn,Conditions,Clouds,dailyrainin,SoftwareType,DateUTC
2013-07-23 00:01:00,79.0,73.0,29.92,SW,232,3.0,-999.0,81,-99.99,,,-99.99,,2013-07-23 04:01:00,
2013-07-23 00:11:00,78.0,71.0,29.91,SW,230,3.0,-999.0,80,-99.99,,,-99.99,,2013-07-23 04:11:00,
2013-07-23 00:43:00,78.0,71.0,29.91,SW,226,3.0,-999.0,80,-99.99,,,-99.99,,2013-07-23 04:43:00,
2013-07-23 00:53:00,77.0,71.0,29.91,SW,226,4.0,-999.0,81,-99.99,,,-99.99,,2013-07-23 04:53:00,
2013-07-23 01:02:00,77.0,71.0,29.90,SW,226,3.0,-999.0,81,-99.99,,,-99.99,,2013-07-23 05:02:00,
2013-07-23 01:11:00,77.0,71.0,29.90,SW,226,3.0,-999.0,81,-99.99,,,-99.99,,2013-07-23 05:11:00,
2013-07-23 01:22:00,77.0,71.0,29.90,SW,222,4.0,-999.0,81,-99.99,,,-99.99,,2013-07-23 05:22:00,
2013-07-23 01:33:00,77.0,71.0,29.90,SW,223,4.0,-999.0,82,-99.99,,,-99.99,,2013-07-23 05:33:00,
2013-07-23 01:44:00,77.0,71.0,29.90,SW,223,4.0,-999.0,82,-99.99,,,-99.99,,2013-07-23 05:44:00,
2013-07-23 01:52:00,76.0,70.0,29.90,SW,220,4.0,-999.0,82,-99.99,,,-99.99,,2013-07-23 05:52:00,
2013-07-23 02:01:00,76.0,70.0,29.90,SW,220,4.0,-999.0,82,-99.99,,,-99.99,,2013-07-23 06:01:00,
2013-07-23 02:11:00,76.0,70.0,29.90,SW,224,4.0,-999.0,82,-99.99,,,-99.99,,2013-07-23 06:11:00,
2013-07-23 02:33:00,76.0,70.0,29.89,SW,232,2.0,-999.0,83,-99.99,,,-99.99,,2013-07-23 06:33:00,
2013-07-23 02:42:00,76.0,70.0,29.89,SW,232,2.0,-999.0,83,-99.99,,,-99.99,,2013-07-23 06:42:00,
2013-07-23 03:02:00,76.0,71.0,29.89,SW,227,4.0,-999.0,85,-99.99,,,-99.99,,2013-07-23 07:02:00,
2013-07-23 03:12:00,76.0,71.0,29.89,SW,227,4.0,-999.0,85,-99.99,,,-99.99,,2013-07-23 07:12:00,
2013-07-23 03:42:00,76.0,72.0,29.88,SW,223,3.0,-999.0,86,-99.99,,,-99.99,,2013-07-23 07:42:00,
2013-07-23 03:52:00,75.0,71.0,29.88,SW,224,3.0,-999.0,87,-99.99,,,-99.99,,2013-07-23 07:52:00,
2013-07-23 04:11:00,75.0,71.0,29.88,SW,223,4.0,-999.0,87,-99.99,,,-99.99,,2013-07-23 08:11:00,
2013-07-23 04:22:00,75.0,71.0,29.88,SW,223,4.0,-999.0,87,-99.99,,,-99.99,,2013-07-23 08:22:00,
2013-07-23 04:33:00,75.0,71.0,29.87,SW,229,5.0,-999.0,87,-99.99,,,-99.99,,2013-07-23 08:33:00,
2013-07-23 04:43:00,75.0,71.0,29.87,SW,226,4.0,-999.0,88,-99.99,,,-99.99,,2013-07-23 08:43:00,
2013-07-23 04:52:00,75.0,71.0,29.87,SW,226,4.0,-999.0,88,-99.99,,,-99.99,,2013-07-23 08:52:00,
2013-07-23 05:11:00,75.0,71.0,29.87,WSW,240,3.0,-999.0,88,-99.99,,,-99.99,,2013-07-23 09:11:00,
2013-07-23 05:22:00,75.0,71.0,29.87,WSW,240,3.0,-999.0,88,-99.99,,,-99.99,,2013-07-23 09:22:00,
2013-07-23 05:33:00,75.0,71.0,29.87,SW,227,3.0,-999.0,88,-99.99,,,-99.99,,2013-07-23 09:33:00,
2013-07-23 05:42:00,75.0,71.0,29.87,SW,223,4.0,-999.0,88,-99.99,,,-99.99,,2013-07-23 09:42:00,
2013-07-23 06:02:00,75.0,71.0,29.87,SW,233,5.0,-999.0,88,-99.99,,,-99.99,,2013-07-23 10:02:00,
2013-07-23 06:11:00,75.0,71.0,29.88,SW,233,4.0,-999.0,88,-99.99,,,-99.99,,2013-07-23 10:11:00,
2013-07-23 06:32:00,75.0,71.0,29.88,SW,232,3.0,-999.0,88,-99.99,,,-99.99,,2013-07-23 10:32:00,
2013-07-23 06:44:00,75.0,72.0,29.88,SW,232,2.0,-999.0,89,-99.99,,,-99.99,,2013-07-23 10:44:00,
2013-07-23 07:02:00,75.0,72.0,29.88,SW,234,4.0,-999.0,89,-99.99,,,-99.99,,2013-07-23 11:02:00,
2013-07-23 07:12:00,75.0,72.0,29.88,SW,232,4.0,-999.0,89,-99.99,,,-99.99,,2013-07-23 11:12:00,
2013-07-23 07:22:00,75.0,72.0,29.88,SW,232,4.0,-999.0,89,-99.99,,,-99.99,,2013-07-23 11:22:00,
2013-07-23 07:32:00,75.0,71.0,29.88,SW,229,3.0,-999.0,88,-99.99,,,-99.99,,2013-07-23 11:32:00,
2013-07-23 07:43:00,75.0,71.0,29.88,SW,229,1.0,-999.0,88,-99.99,,,-99.99,,2013-07-23 11:43:00,
2013-07-23 08:02:00,76.0,72.0,29.88,SW,236,5.0,-999.0,86,-99.99,,,-99.99,,2013-07-23 12:02:00,
2013-07-23 08:11:00,76.0,72.0,29.88,SW,234,3.0,-999.0,86,-99.99,,,-99.99,,2013-07-23 12:11:00,
2013-07-23 08:22:00,76.0,72.0,29.88,SW,234,3.0,-999.0,86,-99.99,,,-99.99,,2013-07-23 12:22:00,
2013-07-23 08:33:00,76.0,72.0,29.89,SW,234,3.0,-999.0,86,-99.99,,,-99.99,,2013-07-23 12:33:00,
2013-07-23 08:43:00,76.0,71.0,29.88,WSW,239,4.0,-999.0,84,-99.99,,,-99.99,,2013-07-23 12:43:00,
2013-07-23 09:11:00,77.0,71.0,29.88,West,260,4.0,-999.0,82,-99.99,,,-99.99,,2013-07-23 13:11:00,
2013-07-23 09:32:00,77.0,71.0,29.88,WSW,258,4.0,-999.0,81,-99.99,,,-99.99,,2013-07-23 13:32:00,
2013-07-23 09:43:00,77.0,71.0,29.88,West,263,5.0,-999.0,81,-99.99,,,-99.99,,2013-07-23 13:43:00,
2013-07-23 09:52:00,77.0,71.0,29.88,West,263,5.0,-999.0,81,-99.99,,,-99.99,,2013-07-23 13:52:00,
2013-07-23 10:02:00,77.0,70.0,29.87,West,260,5.0,-999.0,80,-99.99,,,-99.99,,2013-07-23 14:02:00,
2013-07-23 10:22:00,77.0,71.0,29.87,West,272,4.0,-999.0,81,-99.99,,,-99.99,,2013-07-23 14:22:00,
2013-07-23 10:33:00,77.0,70.0,29.87,West,278,5.0,-999.0,80,-99.99,,,-99.99,,2013-07-23 14:33:00,
2013-07-23 10:44:00,78.0,71.0,29.87,West,274,4.0,-999.0,80,-99.99,,,-99.99,,2013-07-23 14:44:00,
2013-07-23 10:53:00,78.0,71.0,29.87,West,274,4.0,-999.0,80,-99.99,,,-99.99,,2013-07-23 14:53:00,
2013-07-23 11:03:00,78.0,71.0,29.87,WNW,282,4.0,-999.0,79,-99.99,,,-99.99,,2013-07-23 15:03:00,
2013-07-23 11:32:00,79.0,72.0,29.87,West,271,2.0,-999.0,78,-99.99,,,-99.99,,2013-07-23 15:32:00,
2013-07-23 11:43:00,79.0,71.0,29.87,West,278,2.0,-999.0,77,-99.99,,,-99.99,,2013-07-23 15:43:00,
2013-07-23 11:52:00,79.0,71.0,29.87,West,278,2.0,-999.0,77,-99.99,,,-99.99,,2013-07-23 15:52:00,
2013-07-23 12:01:00,81.0,72.0,29.87,SW,224,5.0,-999.0,74,-99.99,,,-99.99,,2013-07-23 16:01:00,
2013-07-23 12:12:00,81.0,72.0,29.87,SW,224,5.0,-999.0,74,-99.99,,,-99.99,,2013-07-23 16:12:00,
2013-07-23 12:22:00,81.0,70.0,29.86,West,261,5.0,-999.0,70,-99.99,,,-99.99,,2013-07-23 16:22:00,
2013-07-23 12:33:00,81.0,70.0,29.86,WNW,284,4.0,-999.0,70,-99.99,,,-99.99,,2013-07-23 16:33:00,
2013-07-23 13:02:00,83.0,72.0,29.86,WNW,287,3.0,-999.0,70,-99.99,,,-99.99,,2013-07-23 17:02:00,
2013-07-23 13:11:00,83.0,72.0,29.86,West,274,6.0,-999.0,69,-99.99,,,-99.99,,2013-07-23 17:11:00,
2013-07-23 13:32:00,83.0,71.0,29.85,West,263,4.0,-999.0,68,-99.99,,,-99.99,,2013-07-23 17:32:00,
2013-07-23 13:42:00,84.0,71.0,29.85,SW,236,5.0,-999.0,66,-99.99,,,-99.99,,2013-07-23 17:42:00,
2013-07-23 14:04:00,84.0,70.0,29.84,West,272,4.0,-999.0,63,-99.99,,,-99.99,,2013-07-23 18:04:00,
2013-07-23 14:13:00,85.0,70.0,29.84,West,265,4.0,-999.0,61,-99.99,,,-99.99,,2013-07-23 18:13:00,
2013-07-23 14:48:00,86.0,70.0,29.83,West,271,4.0,-999.0,60,-99.99,,,-99.99,,2013-07-23 18:48:00,
2013-07-23 15:03:00,86.0,70.0,29.83,West,271,4.0,-999.0,60,-99.99,,,-99.99,,2013-07-23 19:03:00,
2013-07-23 15:15:00,86.0,70.0,29.82,West,280,4.0,-999.0,60,-99.99,,,-99.99,,2013-07-23 19:15:00,
2013-07-23 15:27:00,86.0,70.0,29.82,West,280,4.0,-999.0,60,-99.99,,,-99.99,,2013-07-23 19:27:00,
2013-07-23 15:34:00,87.0,71.0,29.81,WNW,298,4.0,-999.0,59,-99.99,,,-99.99,,2013-07-23 19:34:00,
2013-07-23 15:47:00,87.0,70.0,29.81,West,277,4.0,-999.0,58,-99.99,,,-99.99,,2013-07-23 19:47:00,
2013-07-23 16:07:00,88.0,72.0,29.80,SW,233,4.0,-999.0,59,-99.99,,,-99.99,,2013-07-23 20:07:00,
2013-07-23 16:35:00,87.0,71.0,29.79,NW,315,4.0,-999.0,59,-99.99,,,-99.99,,2013-07-23 20:35:00,
2013-07-23 16:46:00,88.0,72.0,29.78,WSW,248,4.0,-999.0,60,-99.99,,,-99.99,,2013-07-23 20:46:00,
2013-07-23 16:57:00,88.0,72.0,29.78,WSW,248,4.0,-999.0,60,-99.99,,,-99.99,,2013-07-23 20:57:00,
2013-07-23 17:15:00,88.0,71.0,29.78,West,268,4.0,-999.0,58,-99.99,,,-99.99,,2013-07-23 21:15:00,
2013-07-23 17:23:00,88.0,71.0,29.78,West,268,4.0,-999.0,58,-99.99,,,-99.99,,2013-07-23 21:23:00,
2013-07-23 17:37:00,87.0,72.0,29.79,West,265,3.0,-999.0,61,-99.99,,,-99.99,,2013-07-23 21:37:00,
2013-07-23 17:47:00,87.0,71.0,29.78,West,268,4.0,-999.0,60,-99.99,,,-99.99,,2013-07-23 21:47:00,
2013-07-23 17:55:00,87.0,71.0,29.78,West,268,4.0,-999.0,60,-99.99,,,-99.99,,2013-07-23 21:55:00,
2013-07-23 18:06:00,87.0,71.0,29.78,West,263,4.0,-999.0,60,-99.99,,,-99.99,,2013-07-23 22:06:00,
2013-07-23 18:24:00,88.0,73.0,29.78,West,277,3.0,-999.0,62,-99.99,,,-99.99,,2013-07-23 22:24:00,
2013-07-23 18:57:00,87.0,71.0,29.77,WSW,253,3.0,-999.0,60,-99.99,,,-99.99,,2013-07-23 22:57:00,
2013-07-23 19:25:00,87.0,72.0,29.76,WSW,239,3.0,-999.0,62,-99.99,,,-99.99,,2013-07-23 23:25:00,
2013-07-23 19:58:00,86.0,72.0,29.78,WSW,239,2.0,-999.0,63,-99.99,,,-99.99,,2013-07-23 23:58:00,
2013-07-23 20:14:00,85.0,72.0,29.78,SW,236,2.0,-999.0,65,-99.99,,,-99.99,,2013-07-24 00:14:00,
2013-07-23 20:26:00,84.0,71.0,29.78,SW,236,2.0,-999.0,66,-99.99,,,-99.99,,2013-07-24 00:26:00,
2013-07-23 20:34:00,84.0,72.0,29.78,SW,236,2.0,-999.0,68,-99.99,,,-99.99,,2013-07-24 00:34:00,
2013-07-23 20:55:00,83.0,72.0,29.78,SW,236,2.0,-999.0,70,-99.99,,,-99.99,,2013-07-24 00:55:00,
2013-07-23 21:04:00,82.0,72.0,29.78,SW,236,2.0,-999.0,71,-99.99,,,-99.99,,2013-07-24 01:04:00,
2013-07-23 21:24:00,82.0,72.0,29.79,SW,236,1.0,-999.0,72,-99.99,,,-99.99,,2013-07-24 01:24:00,
2013-07-23 21:44:00,81.0,72.0,29.80,SW,236,2.0,-999.0,73,-99.99,,,-99.99,,2013-07-24 01:44:00,
2013-07-23 21:57:00,81.0,72.0,29.80,SW,236,2.0,-999.0,73,-99.99,,,-99.99,,2013-07-24 01:57:00,
2013-07-23 22:05:00,81.0,72.0,29.80,SW,236,1.0,-999.0,74,-99.99,,,-99.99,,2013-07-24 02:05:00,
2013-07-23 22:27:00,81.0,72.0,29.81,SW,236,2.0,-999.0,75,-99.99,,,-99.99,,2013-07-24 02:27:00,
2013-07-23 22:39:00,81.0,72.0,29.82,SW,236,2.0,-999.0,75,-99.99,,,-99.99,,2013-07-24 02:39:00,
2013-07-23 22:47:00,80.0,72.0,29.83,SW,236,3.0,-999.0,76,-99.99,,,-99.99,,2013-07-24 02:47:00,
2013-07-23 22:55:00,80.0,72.0,29.83,SW,236,3.0,-999.0,76,-99.99,,,-99.99,,2013-07-24 02:55:00,
2013-07-23 23:13:00,80.0,72.0,29.83,SW,236,2.0,-999.0,76,-99.99,,,-99.99,,2013-07-24 03:13:00,
2013-07-23 23:24:00,80.0,71.0,29.82,SW,236,0.0,-999.0,75,-99.99,,,-99.99,,2013-07-24 03:24:00,
2013-07-23 23:46:00,80.0,71.0,29.82,SW,236,1.0,-999.0,75,-99.99,,,-99.99,,2013-07-24 03:46:00,
2013-07-23 23:55:00,80.0,71.0,29.82,SW,236,1.0,-999.0,75,-99.99,,,-99.99,,2013-07-24 03:55:00,